Wind_Speed
14 15 15 15 15 15 14 13 12 11 10 9 8 9 9 8 8 8 8 7 8 8 7 8 9 9 9 9 9 10 10 10 10 10 10 10 9 10 11 10 10 10 11 11 10 10 11 11 11 11 11 11 11 10 11 10 10 10 10 11 11 10 10 11 12 13 13 12 11 10 10 10 11 11 12 13 16 18 17 16 15 15 16 19 21
14 14 15 15 15 13 12 11 10 9 9 9 9 9 9 9 8 8 8 7 8 8 7 8 9 9 9 9 9 9 10 10 10 10 10 10 10 10 11 11 11 11 11 12 11 11 11 11 12 12 11 11 11 11 11 10 10 11 10 10 10 10 10 10 11 13 13 11 11 12 11 11 10 10 12 13 13 16 18 18 16 15 18 21 20
14 15 13 12 11 10 9 10 9 9 9 9 9 9 8 8 8 8 8 7 8 7 7 8 8 8 9 10 9 10 10 10 11 11 10 10 10 10 11 11 11 11 11 12 11 11 11 10 11 12 11 11 11 12 11 10 10 11 11 11 11 10 11 11 11 13 14 12 10 11 12 13 12 11 12 12 12 14 17 20 20 20 20 22 22
12 13 11 9 8 8 9 9 10 9 9 9 10 9 8 7 8 8 7 7 8 8 8 8 8 9 9 10 10 11 11 11 11 11 11 11 11 12 12 11 11 11 10 11 12 11 11 10 10 11 11 11 11 12 11 11 10 11 10 10 10 11 12 12 12 13 14 14 13 11 12 14 14 13 12 12 12 13 15 18 20 21 21 22 23
10 9 9 9 9 9 10 10 11 10 10 10 9 8 8 8 8 8 7 8 9 9 9 8 8 9 8 9 10 9 9 10 11 11 11 11 11 13 13 12 11 11 10 11 11 11 11 10 10 10 10 10 11 12 12 11 11 11 10 10 10 10 11 12 13 12 13 15 14 13 13 14 14 14 14 13 13 13 13 15 17 18 19 20 20
11 9 8 8 9 10 11 12 11 10 10 9 8 8 9 9 9 8 8 9 8 8 9 8 8 9 9 9 8 7 8 9 9 10 11 10 10 12 12 12 12 11 11 11 11 11 11 11 11 10 10 9 11 13 13 12 12 11 11 11 12 11 11 12 12 11 12 13 14 14 14 13 13 13 13 13 15 15 14 13 14 16 17 17 17
11 9 8 8 9 10 11 11 10 9 9 8 8 9 9 9 9 8 8 8 8 8 9 9 9 10 10 9 7 8 10 10 9 10 11 11 10 11 12 12 11 11 11 12 12 11 10 9 9 9 9 9 11 13 12 12 12 12 11 12 14 14 13 12 12 12 12 12 13 14 14 14 14 12 11 13 14 14 15 14 14 14 13 14 15
8 8 9 9 10 10 11 11 10 9 9 9 10 10 10 9 9 9 8 9 8 9 10 10 10 10 10 9 8 10 11 12 12 12 12 12 11 11 11 11 11 11 11 12 11 10 9 8 7 8 7 8 10 12 12 12 12 12 13 14 15 16 15 14 14 14 13 13 13 13 14 14 14 14 14 13 12 12 13 14 14 14 13 13 14
7 8 9 9 9 9 10 10 10 10 10 10 10 10 10 10 10 10 11 11 11 10 11 11 10 10 10 10 9 11 13 14 15 15 14 14 13 11 11 11 11 11 11 11 10 9 9 8 7 8 8 7 9 11 12 13 13 13 14 14 14 15 16 15 14 14 13 13 13 13 13 13 13 14 15 14 12 13 14 14 13 13 14 14 14
7 8 8 8 8 7 8 10 10 10 10 10 11 11 10 10 11 11 11 12 12 12 12 11 11 10 11 11 10 11 14 17 17 16 15 14 13 12 11 11 11 11 10 9 9 9 9 8 7 9 9 9 10 11 11 11 12 13 14 14 14 15 15 15 15 14 13 14 14 13 13 13 13 14 15 14 13 13 13 13 13 13 14 15 15
7 7 7 7 6 6 7 8 9 10 10 10 11 11 11 11 11 11 11 11 12 12 12 11 11 11 11 12 10 10 15 18 17 16 16 15 13 11 10 10 10 10 9 9 9 9 10 9 8 9 10 10 10 10 8 7 10 13 14 14 14 14 14 14 14 14 13 13 14 13 13 14 15 14 15 15 14 13 13 14 14 14 14 15 14
6 6 6 6 6 5 5 7 9 9 10 10 11 11 11 11 12 12 12 12 12 13 13 11 11 10 10 10 10 11 16 18 17 16 16 15 12 9 9 9 9 8 9 9 9 9 10 10 9 9 11 11 12 12 10 9 9 10 10 10 10 11 13 13 12 12 12 12 13 13 12 13 15 15 15 16 16 15 15 16 15 14 14 15 14
6 6 6 5 5 6 6 6 8 8 9 10 10 11 11 11 12 12 12 12 12 13 12 11 10 10 10 10 9 12 18 20 18 17 16 14 11 9 7 9 8 7 8 8 8 9 10 10 9 10 11 12 13 15 14 12 11 9 8 7 7 9 11 11 10 10 10 11 12 12 12 12 13 13 14 16 16 16 17 17 16 16 16 15 15
5 6 6 5 6 7 5 5 6 8 8 8 9 10 11 11 11 11 11 11 11 11 11 11 11 10 10 10 10 11 18 23 21 20 18 13 11 10 8 8 7 7 8 8 7 8 10 11 10 11 13 14 15 15 15 14 12 9 8 7 7 7 7 8 9 9 8 8 10 11 12 12 13 13 13 14 15 16 17 17 17 17 18 17 17
5 5 6 6 7 8 5 3 5 7 7 7 8 9 10 10 11 11 10 10 10 10 11 11 11 10 10 11 10 9 16 24 24 22 20 15 11 11 9 8 8 7 8 9 8 8 11 12 12 13 14 15 15 14 14 14 12 9 9 8 8 8 7 7 9 10 10 10 10 10 10 12 13 14 15 15 16 16 16 17 18 18 19 19 18
6 6 7 7 7 8 6 3 4 6 6 6 7 7 9 9 10 11 10 10 10 9 10 10 10 10 10 11 11 9 15 23 26 24 23 18 13 11 10 8 9 8 8 9 8 7 10 13 13 14 14 15 14 13 14 14 11 10 10 8 8 8 8 8 10 11 11 12 11 10 10 11 12 12 13 14 16 17 16 15 16 16 17 17 17
7 6 7 7 7 8 6 2 3 4 5 5 6 7 8 8 8 9 9 10 10 9 10 10 10 10 10 10 12 10 13 21 26 25 24 20 15 12 11 10 9 8 8 9 7 6 9 13 14 14 14 15 15 14 14 14 12 12 12 10 9 8 9 9 10 10 11 11 11 10 11 12 12 13 14 13 12 14 14 14 15 15 15 16 16
7 7 6 7 7 7 6 3 2 3 4 5 5 6 7 7 7 7 8 10 10 10 11 11 10 10 9 9 11 11 12 19 24 25 25 22 16 13 12 11 9 9 9 8 6 6 8 11 13 15 16 16 16 15 16 16 15 14 14 13 11 10 11 10 9 8 9 9 10 10 10 11 11 13 16 16 15 15 14 14 16 15 14 15 16
8 7 6 7 7 7 5 3 4 4 4 4 4 5 5 6 6 7 7 8 9 9 10 11 10 10 10 9 10 11 11 16 22 25 25 24 20 16 14 12 10 10 9 9 8 8 8 9 12 15 16 16 17 18 18 18 17 17 16 15 13 14 13 11 9 10 9 8 9 9 8 10 10 10 12 15 15 16 15 15 16 16 16 16 16
7 6 6 6 6 6 6 5 5 5 4 4 5 5 6 6 6 7 7 7 8 9 10 11 10 11 11 10 9 10 10 13 18 23 25 25 24 22 17 14 11 11 11 10 10 10 9 9 11 14 16 17 18 19 19 19 19 18 18 18 17 17 15 11 10 11 10 9 9 9 8 9 8 8 9 10 10 10 12 14 16 16 16 16 15
7 6 5 6 7 7 7 7 7 6 6 7 7 7 7 7 6 6 7 7 7 8 9 10 11 11 11 11 10 10 11 12 15 20 23 24 25 25 22 17 12 11 12 11 10 11 10 9 11 14 16 17 18 19 19 19 19 18 18 18 17 16 15 13 12 11 10 9 9 8 8 9 8 8 7 8 9 9 10 13 15 15 16 16 14
6 5 5 5 6 7 7 8 7 7 7 7 7 7 7 7 7 7 7 8 8 8 9 10 11 11 12 12 11 11 12 12 14 18 21 22 23 24 24 21 15 12 12 12 11 11 10 9 12 15 16 16 16 16 17 17 18 17 16 15 14 14 14 13 13 12 10 9 9 9 9 9 9 8 8 8 10 12 13 13 13 13 15 15 14
5 5 5 4 5 6 6 7 7 7 7 6 5 6 7 8 8 8 8 8 8 9 9 10 11 12 11 12 12 12 12 13 14 17 19 19 20 22 23 23 17 13 13 13 12 12 11 10 12 14 14 15 15 15 17 17 16 15 15 14 16 16 15 14 14 13 12 11 11 11 11 12 10 9 8 9 10 11 12 11 10 9 10 11 12
5 5 5 4 4 5 6 6 6 7 7 6 5 6 7 8 8 8 8 8 8 9 9 11 12 12 12 12 12 12 12 12 14 18 18 18 20 21 22 22 18 14 13 13 12 13 13 14 16 16 15 17 17 16 17 19 18 18 17 16 18 18 17 16 16 15 14 14 13 12 13 14 13 10 9 10 10 10 10 10 8 7 7 7 7
5 5 5 3 4 5 6 6 6 7 7 6 6 6 7 8 9 8 8 8 8 8 9 11 11 12 13 14 13 13 13 12 13 15 16 17 20 20 20 20 18 16 13 13 13 16 17 17 19 19 17 19 18 15 15 17 19 20 20 18 17 17 17 18 18 17 16 15 14 13 14 14 13 11 9 10 10 10 11 10 8 7 7 6 5
6 5 5 3 4 5 6 5 6 6 6 6 6 6 7 8 8 9 9 8 8 8 9 10 11 12 13 14 14 14 14 14 12 12 12 13 15 17 18 19 17 14 13 13 14 16 17 16 18 18 17 17 17 14 14 15 16 17 18 17 15 16 17 18 18 18 17 16 15 14 14 14 14 12 10 10 10 10 11 11 9 8 7 5 4
5 5 4 4 4 5 5 6 6 6 6 5 5 5 6 7 8 9 8 8 8 8 8 9 10 12 13 13 13 14 14 14 13 14 13 11 12 12 13 14 14 12 12 14 12 11 12 13 14 15 15 15 15 13 13 14 14 14 15 15 15 16 17 18 18 18 17 16 15 15 14 14 14 13 12 11 10 10 10 10 9 9 9 7 5
5 4 5 5 5 5 5 6 6 6 5 5 4 4 5 5 6 7 7 7 7 7 7 8 9 10 11 11 12 13 13 13 15 17 17 16 15 14 11 11 11 10 12 14 12 9 11 13 12 12 13 13 13 12 13 13 13 13 14 14 14 15 16 17 17 18 17 17 16 15 15 15 14 14 13 12 11 11 10 10 9 9 8 8 7
4 4 5 5 5 5 6 6 6 6 5 4 4 3 3 3 3 4 5 6 7 7 7 7 8 9 9 9 10 11 11 12 15 18 19 19 19 18 15 12 10 9 12 13 11 9 11 12 12 12 13 12 12 13 13 13 13 13 14 15 15 15 16 16 17 18 18 17 17 16 15 14 14 13 13 12 12 11 11 11 11 10 9 8 8
3 3 5 6 5 5 6 6 6 6 5 4 4 5 5 4 3 3 4 6 7 8 8 8 9 10 9 8 11 12 12 12 14 16 18 19 19 20 19 15 10 9 11 10 8 8 11 11 11 11 12 12 12 13 12 13 13 13 14 14 14 15 16 16 17 18 18 17 16 15 15 14 14 13 13 13 12 12 11 11 11 10 10 9 9
2 3 5 5 5 5 6 6 6 6 6 5 4 6 7 6 5 5 5 6 7 8 9 10 11 12 11 10 12 14 14 14 14 14 16 18 19 20 20 17 12 10 9 8 8 8 10 10 10 11 11 11 12 12 12 12 13 14 14 14 15 16 16 16 17 18 17 16 15 14 14 14 13 13 13 12 12 12 12 11 11 10 10 10 10
4 4 5 6 6 7 7 7 7 7 7 6 5 6 7 8 8 8 8 8 9 10 11 12 12 13 14 14 14 15 15 15 15 14 14 16 18 20 19 17 16 15 11 9 9 9 8 9 10 10 11 11 11 12 12 12 12 14 14 14 15 15 15 17 18 17 16 15 14 14 14 13 13 13 13 12 12 12 12 11 11 11 11 10 10
5 6 7 7 7 8 8 8 8 8 7 7 7 7 8 8 9 10 11 11 12 13 13 15 16 16 15 15 17 17 16 15 14 14 13 14 17 19 17 15 15 16 13 9 8 8 8 9 10 10 10 11 11 11 11 12 12 13 13 14 14 14 15 17 17 16 15 14 14 14 14 13 12 12 12 12 12 12 11 11 11 11 11 11 11
6 6 7 7 8 8 8 8 8 8 8 8 8 8 9 9 10 11 11 11 12 13 14 16 18 18 16 16 18 19 18 16 14 13 13 13 15 16 16 14 14 15 14 11 8 8 9 9 9 9 9 10 10 11 11 12 12 12 13 13 13 14 15 16 16 15 15 15 14 14 14 13 13 12 11 11 12 12 11 11 11 11 11 11 12
6 6 7 7 8 9 9 9 9 10 10 9 9 9 10 10 11 11 11 11 12 13 14 15 17 18 18 17 17 18 18 16 14 13 11 11 13 14 15 14 12 11 11 10 9 9 9 8 8 9 9 9 10 11 11 11 11 12 12 13 13 14 14 14 15 15 15 15 15 15 15 14 13 12 11 10 11 11 11 11 12 12 11 12 12
7 7 8 8 9 9 10 10 11 12 12 11 11 10 11 11 11 12 12 12 13 14 14 15 17 19 19 16 15 18 18 16 14 12 10 10 11 12 12 12 11 9 8 8 8 8 8 7 7 8 8 9 10 10 11 11 11 11 12 12 12 13 13 13 14 15 15 15 15 15 15 14 13 13 12 11 11 11 11 11 12 11 11 12 12
9 8 9 10 11 12 12 12 12 13 13 12 12 11 11 12 12 12 13 13 13 14 15 16 18 20 19 16 15 18 19 17 14 11 9 8 9 10 10 11 12 10 8 8 8 8 7 6 7 7 7 8 8 9 10 11 10 10 11 11 11 12 13 13 13 14 14 15 15 15 15 14 13 12 12 11 11 11 11 11 12 11 11 12 12
11 11 12 13 13 15 16 15 13 13 13 12 12 12 12 13 13 13 13 13 14 15 16 17 18 17 16 14 13 15 18 18 14 9 6 6 8 8 8 10 11 9 8 8 8 7 6 6 7 7 7 8 9 9 9 9 9 10 11 11 11 12 13 13 13 13 13 14 14 14 14 13 12 11 11 11 11 11 10 11 11 11 11 12 12
12 13 15 16 16 16 16 16 15 14 13 12 12 12 13 13 14 14 13 13 14 16 16 17 17 15 13 11 11 12 14 14 11 7 6 6 6 6 7 9 10 9 7 7 7 7 6 6 6 7 7 8 9 9 9 9 9 9 11 11 11 12 13 12 13 14 15 15 16 15 14 13 11 10 10 10 10 10 10 10 11 11 11 11 11
11 13 15 17 17 16 15 14 14 14 13 12 12 12 13 13 14 14 14 14 15 16 16 16 16 14 12 11 11 12 13 13 11 8 7 6 6 5 6 8 10 8 7 7 7 6 5 5 6 6 7 7 8 9 9 9 9 9 10 10 11 11 12 11 13 14 16 17 17 17 16 15 13 10 9 9 9 9 9 10 10 10 11 11 11
12 14 15 15 16 15 13 12 12 13 12 12 12 13 13 13 14 15 16 17 17 16 16 16 16 14 14 14 13 13 15 15 11 7 6 5 5 5 5 7 9 8 7 7 7 6 5 6 6 6 6 7 7 8 8 9 9 9 9 9 10 10 10 11 12 14 16 16 17 17 17 16 14 11 9 9 9 9 9 9 10 10 10 11 11
13 14 14 14 13 13 12 11 11 11 10 10 11 12 12 13 15 16 17 20 22 19 16 16 16 15 16 17 15 13 14 13 9 5 5 5 4 4 5 6 8 9 8 7 7 6 6 5 5 6 6 7 7 7 7 8 8 9 8 9 9 10 10 10 12 14 15 15 15 15 15 14 13 11 9 9 9 9 9 9 10 10 10 11 11
12 13 14 14 12 11 11 11 10 10 9 10 11 12 14 16 17 17 18 23 25 22 17 15 15 14 14 16 15 12 10 10 7 4 5 5 4 4 5 6 8 9 8 7 6 6 6 5 5 6 6 7 7 6 6 7 8 9 8 8 8 9 10 11 12 14 15 14 14 14 14 13 11 10 9 9 9 9 10 10 10 11 11 11 12
12 12 13 12 11 10 11 10 10 10 11 12 14 15 16 17 17 17 18 20 21 19 15 14 14 13 13 16 17 13 9 9 8 6 6 6 5 5 5 7 8 8 8 6 6 6 6 5 5 5 6 7 7 7 6 6 7 8 7 6 7 9 10 11 12 14 15 14 12 13 14 13 11 9 9 9 9 10 10 11 11 11 11 11 11
12 12 12 10 10 10 10 11 11 12 13 14 15 16 16 16 16 16 17 17 17 17 15 14 13 12 13 15 16 13 10 10 9 7 7 7 6 6 6 7 7 8 8 6 6 6 6 6 6 5 6 6 7 6 6 6 6 6 6 6 7 9 9 10 12 13 15 15 13 13 14 13 10 9 9 9 9 10 10 11 11 12 12 12 12
12 12 11 9 9 11 11 12 13 14 14 14 15 15 16 16 15 16 16 16 16 17 16 14 13 13 11 12 13 12 11 10 10 8 8 8 7 6 6 7 7 7 7 7 6 6 6 6 6 6 6 6 6 6 5 5 5 6 7 8 8 9 10 10 11 12 13 14 15 15 16 14 11 9 9 9 9 10 10 10 11 12 13 13 12
11 11 10 9 10 11 11 12 13 13 13 13 14 15 16 16 16 16 16 16 16 16 14 14 13 12 11 11 12 12 10 10 10 8 8 8 8 7 6 6 7 7 7 7 7 7 7 7 7 6 6 6 6 6 6 5 4 5 7 8 8 10 10 11 11 12 12 13 14 15 17 15 11 9 9 9 9 10 10 10 11 12 12 12 12
10 10 9 9 10 10 10 11 11 12 12 13 14 15 16 17 17 16 16 16 16 15 14 13 13 12 12 12 12 11 11 11 10 9 8 8 8 7 6 6 7 7 7 7 7 7 8 8 7 6 6 6 6 6 6 6 5 4 5 6 8 10 10 11 11 11 12 12 13 15 16 15 12 9 9 9 9 10 10 11 11 11 11 11 11
9 9 9 9 10 9 9 10 11 12 13 14 14 15 16 16 16 17 17 17 16 15 14 14 14 13 13 13 12 11 11 11 10 10 9 9 8 7 6 7 7 7 8 8 8 8 9 9 7 6 6 6 6 6 6 5 5 4 4 6 8 10 10 10 11 11 11 11 12 13 14 14 11 9 8 9 9 9 9 10 11 11 11 11 11
8 8 8 8 9 9 10 11 12 13 14 15 15 16 16 16 16 16 17 17 17 16 16 15 14 14 14 14 14 13 12 11 11 10 9 8 7 7 6 7 8 9 9 9 9 9 9 9 8 7 6 6 7 7 6 6 5 5 6 8 9 10 10 10 10 10 10 10 11 12 13 13 11 9 8 8 9 9 9 10 10 10 11 11 12
6 7 8 8 9 11 12 12 13 14 15 15 16 16 16 16 16 16 16 16 16 16 16 15 15 15 15 15 15 14 13 12 12 10 9 8 7 7 7 8 9 9 9 9 9 9 9 9 9 8 7 7 7 7 8 9 9 8 9 10 9 9 10 10 10 10 10 10 10 11 12 11 9 8 8 8 8 8 9 9 10 10 10 10 11
Wind_Direction
353 353 350 351 352 349 352 357 359 359 0 12 19 10 5 6 8 13 11 6 6 2 353 346 345 350 359 3 0 358 0 2 0 358 357 358 1 356 347 345 340 330 326 325 325 322 318 318 317 313 314 316 313 314 319 317 310 306 304 303 307 310 306 301 305 309 311 315 317 316 309 293 282 279 272 262 250 243 238 229 233 243 235 231 236
348 349 350 355 359 359 0 3 5 3 2 11 18 16 12 7 10 17 12 4 2 357 354 350 347 357 7 7 6 4 2 5 5 2 356 356 4 2 350 347 345 339 336 335 331 324 321 322 322 318 316 317 314 313 319 323 319 312 305 300 302 310 311 311 313 309 307 312 313 313 313 307 298 290 282 273 261 252 245 235 232 240 237 232 231
348 353 0 6 9 9 6 2 5 7 8 12 15 18 17 11 12 16 13 7 357 351 355 352 345 359 9 3 1 2 1 3 3 4 0 353 356 1 353 346 347 345 342 339 335 330 328 329 330 326 320 318 316 312 314 323 325 318 310 304 302 304 307 309 310 308 308 308 308 311 309 306 306 301 291 284 276 266 256 246 241 240 239 237 232
357 0 8 13 14 12 5 3 8 12 14 15 16 17 18 17 14 10 6 1 354 353 358 356 355 3 6 360 357 356 356 357 357 0 4 354 347 354 358 352 349 347 341 335 330 328 329 332 334 332 327 323 321 315 313 318 321 317 314 313 309 303 301 299 299 305 308 304 302 306 306 305 305 301 297 293 286 278 268 258 253 249 245 241 237
7 12 12 10 14 15 9 10 14 16 18 17 15 16 17 21 19 10 3 2 3 6 7 4 1 1 2 3 0 353 352 357 356 358 2 357 344 348 358 359 354 350 344 337 329 322 322 324 326 330 332 328 321 318 317 317 317 316 316 321 323 316 309 302 296 299 305 305 303 302 302 305 305 304 304 302 295 289 277 267 263 260 255 250 247
358 13 18 11 17 20 16 16 17 16 18 14 13 15 16 19 20 13 10 11 10 9 10 8 1 0 8 7 357 351 358 4 4 357 357 356 347 345 353 358 355 351 346 344 341 335 331 330 325 325 328 324 314 315 320 320 317 316 316 321 327 326 319 313 307 305 307 307 305 305 304 304 306 311 310 304 302 300 290 277 268 263 262 258 254
355 8 18 20 22 19 16 17 16 14 15 13 14 18 16 14 14 11 10 14 13 6 5 8 5 7 10 3 354 359 4 5 5 358 353 352 348 344 347 352 352 352 350 348 345 340 337 336 329 326 328 318 307 310 316 314 309 311 312 315 322 324 319 314 315 316 315 311 309 308 306 304 305 309 304 300 304 307 302 292 281 271 264 258 252
6 12 18 24 21 16 15 16 13 11 12 13 15 16 14 11 10 6 4 8 6 358 359 6 11 11 7 4 358 355 356 357 359 358 353 349 347 344 345 348 350 354 354 350 346 340 340 342 335 332 329 314 308 313 314 308 306 309 310 309 313 316 312 310 313 318 318 313 310 308 305 303 304 302 300 304 310 308 301 296 290 281 269 258 252
16 17 20 21 16 14 17 16 14 13 13 13 12 11 9 7 6 1 358 359 357 355 358 4 12 13 12 16 7 350 353 1 359 357 355 349 346 346 347 349 354 356 353 351 351 349 352 351 339 333 329 310 304 305 300 300 307 310 308 308 308 307 304 306 311 313 312 309 307 308 305 306 308 303 300 305 306 299 293 294 299 294 280 267 258
17 15 14 15 13 17 21 19 17 16 16 14 11 9 7 6 5 3 1 3 4 4 2 3 14 18 17 25 18 355 357 4 359 356 356 350 347 349 350 354 359 359 354 353 355 356 359 358 345 337 330 314 308 307 301 305 311 306 301 301 299 296 299 305 307 305 305 305 305 306 303 302 306 304 299 298 300 302 301 302 307 304 290 279 268
13 9 8 11 10 14 23 21 19 18 18 17 15 15 15 15 15 16 16 15 18 19 16 15 23 24 21 26 24 2 358 3 359 357 358 353 353 356 354 357 1 358 356 356 355 357 3 3 354 342 335 329 331 338 338 330 317 305 300 301 299 298 299 299 299 300 302 303 303 303 303 300 298 297 297 295 293 298 303 304 305 303 294 289 285
7 3 6 7 356 1 25 25 21 22 22 21 23 23 24 26 26 27 28 28 31 32 29 29 30 29 27 29 28 12 6 5 2 1 359 355 2 10 357 357 3 357 357 359 352 351 0 2 352 342 344 346 345 347 345 337 326 314 311 314 310 302 296 293 294 296 297 297 297 298 301 299 296 296 298 297 294 294 296 296 299 300 292 287 290
360 356 360 357 344 356 24 27 21 26 25 25 29 28 29 32 30 29 31 32 37 38 35 34 34 34 33 31 28 19 15 12 8 7 4 360 15 28 4 357 5 358 357 0 349 347 356 360 357 350 350 347 341 339 335 333 336 335 331 334 323 300 295 296 295 289 284 287 291 292 291 294 297 298 298 297 295 294 292 291 292 293 289 285 286
1 359 359 354 346 353 14 30 24 25 26 26 30 30 31 35 33 32 31 32 37 39 37 35 34 33 33 31 26 16 15 16 14 12 10 10 30 38 11 359 7 359 359 0 351 352 357 360 2 356 347 342 339 337 335 335 341 339 329 334 336 320 311 307 298 292 293 296 294 288 282 282 286 289 292 293 291 289 288 289 290 290 289 288 286
11 10 4 360 354 348 353 34 34 23 22 24 26 27 30 33 35 35 32 30 33 34 33 32 30 28 28 29 26 8 5 14 17 15 13 19 37 34 13 7 12 3 358 357 353 357 355 350 351 349 344 344 344 341 338 342 348 342 326 327 333 331 329 321 311 310 313 312 306 298 287 281 279 279 282 280 278 281 284 285 286 287 289 289 287
15 11 1 359 358 345 340 34 45 19 18 21 17 19 24 26 30 32 32 30 28 26 24 23 22 23 21 24 26 3 355 10 19 17 15 23 37 29 13 13 16 5 357 355 355 0 356 348 347 349 349 351 352 348 345 348 353 348 342 339 328 324 324 319 314 311 310 311 311 302 286 281 278 275 279 278 273 275 279 282 284 286 289 290 289
13 10 1 359 1 349 342 28 48 12 15 20 8 10 17 17 18 23 26 26 24 23 21 16 16 18 14 17 24 9 353 7 19 20 19 25 35 27 15 16 15 6 2 359 357 4 4 355 350 354 357 354 354 354 352 355 356 353 355 356 343 334 327 315 308 301 294 297 300 287 271 273 276 271 273 278 277 278 280 281 282 283 287 289 289
7 5 2 2 5 355 345 6 25 2 19 25 7 5 11 8 8 16 21 21 20 21 21 17 15 13 5 7 19 17 358 3 16 23 24 27 32 26 18 20 15 6 5 3 356 357 3 355 346 351 358 354 352 356 357 0 3 0 360 360 354 346 332 318 316 308 293 289 292 285 273 272 273 271 272 273 277 285 289 287 285 285 288 289 288
357 358 359 1 4 359 350 355 359 352 8 17 0 356 5 2 359 5 15 18 16 16 19 16 11 7 2 1 10 17 7 360 10 21 26 30 35 31 22 21 17 8 4 4 0 356 360 354 342 347 357 356 355 1 3 6 10 7 5 4 1 354 342 328 327 326 316 310 307 305 298 284 274 274 276 274 276 283 287 287 286 285 283 282 286
353 357 2 6 10 6 360 360 358 352 358 5 356 357 6 6 359 1 9 10 7 11 15 15 11 7 8 7 2 8 11 3 6 15 21 27 34 35 28 23 18 10 6 6 3 356 358 359 347 351 1 1 0 4 5 9 13 10 7 8 3 358 354 347 338 332 328 328 323 321 324 314 300 292 286 282 287 292 287 280 278 281 282 280 280
357 2 8 15 21 23 21 22 21 14 12 13 5 2 6 9 4 3 7 6 6 10 13 13 13 10 11 12 4 357 2 4 7 12 15 20 28 32 29 27 24 15 9 9 7 359 357 359 352 354 2 1 360 3 4 7 11 9 8 7 360 357 0 358 348 341 337 336 333 330 329 325 322 317 305 292 289 293 290 282 275 273 276 279 281
1 8 14 19 27 31 29 29 29 20 13 12 9 9 12 9 3 3 8 9 9 13 13 11 13 12 11 14 10 360 354 354 1 8 11 14 21 24 24 25 30 26 13 10 11 3 359 358 351 353 1 359 355 359 3 5 10 10 6 5 5 9 12 5 358 358 356 348 344 344 340 337 332 327 321 306 290 287 290 288 281 271 268 272 281
8 13 10 12 23 23 16 18 22 16 11 13 16 17 15 9 3 4 9 12 13 17 19 15 15 16 14 13 11 6 357 349 348 355 2 8 13 15 14 17 28 36 21 13 15 6 0 360 350 346 354 354 349 355 1 1 4 8 8 12 17 19 19 12 8 10 9 2 358 354 349 346 342 332 325 318 305 298 297 296 295 288 276 272 275
11 9 359 1 13 9 3 11 18 16 15 22 26 22 17 14 10 8 13 17 19 24 26 22 19 18 18 16 13 9 5 357 347 346 352 360 4 4 4 7 23 39 27 11 10 4 360 3 359 354 358 359 358 1 358 351 352 359 9 21 21 15 15 16 15 13 11 5 1 358 352 349 347 340 332 330 324 319 318 317 313 308 297 284 275
7 2 357 360 5 6 7 12 17 19 20 25 29 25 22 21 19 18 21 24 27 31 29 26 23 21 20 20 18 13 11 8 357 349 352 358 357 355 355 357 12 30 20 358 355 356 356 2 6 6 6 5 6 6 354 346 348 353 1 14 16 7 9 15 14 13 11 4 358 356 351 350 349 343 336 339 340 334 331 331 326 316 308 291 269
2 357 2 11 11 12 15 14 15 18 19 23 26 24 24 25 25 26 27 28 32 35 29 25 24 24 21 19 21 21 17 12 6 359 358 357 353 351 352 352 357 10 6 350 348 352 351 355 2 4 3 4 6 2 350 348 352 351 353 3 5 1 4 9 8 8 7 2 358 354 350 349 351 348 342 342 344 339 334 335 337 335 332 316 280
359 2 17 28 18 11 14 15 13 11 13 21 22 21 24 27 27 29 31 32 33 31 27 25 22 20 20 17 19 23 19 12 12 12 10 7 358 352 350 346 344 351 352 346 344 346 346 351 356 357 357 0 2 356 347 349 354 353 352 356 357 355 358 1 1 3 4 2 358 354 353 353 354 354 351 347 345 344 342 341 346 348 349 352 348
16 33 36 30 18 6 7 11 8 2 3 8 8 13 22 21 19 23 28 32 33 27 22 24 19 14 16 12 12 17 15 9 13 17 18 17 11 3 353 341 338 340 339 339 344 348 347 350 353 353 354 356 356 352 350 351 354 352 352 354 353 352 354 354 354 360 6 6 1 356 354 354 353 353 354 351 349 349 347 346 350 352 353 357 358
34 44 28 16 7 1 1 2 358 354 352 348 338 341 353 1 7 8 8 19 29 26 22 20 12 9 11 2 358 6 5 0 7 15 17 16 13 8 359 344 333 331 332 339 352 355 346 347 350 350 352 354 353 352 352 352 352 351 352 354 352 351 353 352 351 357 2 2 358 355 353 350 351 353 354 352 351 352 351 350 350 352 356 360 358
16 14 7 1 353 354 357 353 347 343 341 336 325 322 324 333 355 357 352 4 16 17 13 7 0 2 3 347 342 351 354 351 357 5 10 12 10 5 359 348 331 322 329 344 1 355 344 347 350 349 350 352 350 350 351 352 351 350 351 353 351 351 351 349 349 354 356 353 352 354 353 349 350 352 352 352 351 352 354 354 352 352 354 355 353
329 334 347 344 333 333 340 340 338 337 334 330 322 317 319 327 335 336 341 354 1 0 359 356 351 351 351 342 335 337 341 343 346 351 360 7 8 4 0 358 352 340 339 360 15 1 346 347 348 345 348 350 349 349 351 351 351 350 350 350 351 350 348 348 352 355 353 349 351 354 353 351 350 350 351 351 349 351 354 355 355 355 353 351 350
305 309 322 325 319 320 325 329 332 333 331 324 315 313 317 321 322 321 325 334 340 342 345 347 345 341 342 344 339 331 327 330 335 339 347 358 4 4 5 7 7 6 8 18 17 3 350 346 345 344 347 350 349 349 350 350 349 349 349 349 349 348 345 349 356 357 352 354 357 354 351 353 353 351 352 352 350 350 352 354 354 355 353 350 349
311 305 309 313 312 313 318 320 321 324 324 317 310 311 313 313 315 318 320 324 329 332 335 340 340 336 334 339 342 337 328 321 322 326 335 349 0 7 11 10 5 6 14 17 4 354 349 346 345 346 347 349 349 348 348 348 348 348 349 348 346 345 345 349 353 354 358 4 3 354 353 357 356 353 355 355 352 350 350 350 352 353 351 350 349
319 307 305 307 307 310 317 318 316 316 315 310 306 305 306 308 311 313 316 320 324 326 327 328 328 326 326 332 339 341 337 328 317 315 326 342 354 7 17 12 357 357 6 6 353 349 349 346 345 347 348 347 347 347 347 347 347 348 348 346 344 344 347 349 348 353 8 13 3 356 3 5 359 357 0 356 351 350 348 349 350 350 348 347 345
330 320 314 312 308 310 315 315 314 314 309 303 301 299 300 304 306 308 314 318 318 319 320 319 317 318 321 327 334 338 339 335 322 313 319 334 345 2 17 12 355 346 348 346 342 343 346 345 345 347 347 346 347 349 346 344 347 347 344 345 347 346 347 347 344 351 8 11 357 356 7 9 2 3 4 357 351 349 347 346 346 346 346 344 340
337 330 324 320 315 311 308 306 307 310 306 298 294 294 296 299 301 304 311 314 314 316 319 319 318 316 315 319 329 337 340 338 329 317 315 325 342 2 14 3 349 340 333 332 335 338 340 342 343 343 343 343 345 348 345 343 346 345 342 347 351 346 344 345 343 349 2 2 352 353 2 3 2 5 4 358 352 348 344 343 342 342 342 340 338
327 326 323 321 316 311 308 304 303 306 307 301 294 291 294 298 300 304 309 311 312 315 318 321 323 321 319 322 331 336 337 335 327 316 311 320 344 6 8 350 342 340 330 325 330 332 334 338 337 335 338 339 341 345 345 343 342 339 339 347 350 344 346 351 348 347 354 352 347 351 356 355 355 358 358 354 350 346 344 343 341 340 340 338 338
324 327 330 328 321 314 310 309 306 305 306 305 298 292 293 296 299 303 308 309 311 314 317 322 325 324 325 329 329 327 329 330 326 316 310 321 338 353 352 342 340 338 328 323 327 328 328 330 329 331 338 342 342 341 340 340 339 337 339 344 344 345 354 357 348 345 350 351 350 355 356 351 349 350 349 348 344 342 343 342 340 340 339 338 338
322 326 332 335 331 320 311 309 307 304 303 304 300 293 292 294 296 301 304 306 308 311 315 320 323 322 322 325 324 320 320 321 315 299 286 299 317 326 331 336 339 336 327 322 319 318 320 322 324 331 339 341 341 340 337 337 336 332 336 340 341 347 357 357 347 350 0 5 3 2 359 354 351 349 345 342 339 338 341 340 339 339 338 336 336
323 324 329 333 333 326 315 307 305 304 301 300 300 296 293 292 294 299 302 303 305 308 312 317 318 315 309 312 323 327 320 312 304 292 278 284 307 320 324 332 336 333 327 321 313 309 314 315 317 328 336 337 338 339 337 335 331 329 333 337 340 348 356 353 348 357 9 13 11 7 3 359 355 349 343 340 337 337 338 335 335 336 334 332 333
326 329 334 335 334 332 325 314 309 308 305 300 300 301 298 295 296 300 302 301 301 304 310 315 316 309 302 307 322 333 326 318 312 300 282 283 308 324 325 331 336 334 329 319 307 300 301 305 312 323 329 330 334 338 337 332 327 327 331 332 336 348 354 349 350 1 11 13 10 8 6 2 358 351 345 342 340 339 337 334 333 334 332 331 332
324 329 337 339 336 334 333 327 323 321 316 309 307 306 303 302 303 302 300 303 307 309 309 312 317 314 307 308 315 324 327 327 323 304 286 288 302 323 332 334 335 333 325 313 303 294 293 300 312 320 322 322 325 331 334 330 324 324 326 327 335 347 352 349 353 2 7 7 6 5 3 360 357 353 348 345 343 341 339 337 336 335 333 333 331
324 327 333 337 338 338 339 339 337 334 329 322 318 314 310 309 308 303 301 308 319 322 316 312 318 319 309 306 310 316 327 336 332 303 291 293 293 307 322 325 326 327 321 309 297 291 289 294 305 312 317 318 316 318 326 328 323 320 318 322 336 350 354 354 357 1 2 2 2 1 359 356 354 351 347 343 343 343 341 341 340 338 336 336 333
324 326 331 334 335 337 338 337 335 333 328 323 321 318 315 312 309 306 305 311 321 326 320 314 317 315 305 309 319 326 331 334 328 306 293 294 290 296 309 314 320 327 325 312 295 288 285 289 296 302 311 315 312 314 323 325 319 314 314 325 345 353 354 356 358 359 360 0 356 351 350 351 350 348 346 342 342 344 343 340 339 338 337 336 333
321 326 332 333 332 332 332 331 330 328 325 322 322 321 320 319 316 315 314 314 317 320 318 313 315 312 305 311 324 331 329 327 324 311 297 295 291 290 297 303 313 325 326 311 291 282 280 281 283 288 298 305 307 309 313 316 317 315 316 332 350 350 346 351 356 355 357 360 357 349 348 348 347 344 342 340 340 342 340 339 339 339 336 334 333
320 328 332 330 328 329 329 328 330 331 330 331 331 331 332 331 328 327 327 324 322 323 321 317 318 318 312 314 324 329 326 325 323 311 299 295 290 286 289 293 303 319 322 305 287 282 281 278 276 276 281 288 295 301 304 309 318 314 306 317 339 347 344 348 352 350 351 356 357 353 352 352 347 339 338 338 338 336 336 336 339 338 334 332 332
324 332 332 328 328 329 329 329 332 335 338 342 343 343 344 343 339 336 335 332 329 329 328 325 325 326 323 322 326 327 325 324 321 310 302 299 291 283 283 285 293 310 316 303 290 286 284 278 274 274 275 282 294 304 302 300 305 302 295 307 332 345 343 343 346 347 347 349 351 351 353 354 348 338 335 336 335 333 334 335 336 334 332 331 330
331 335 333 329 329 330 330 333 337 341 344 347 348 348 349 349 347 346 345 342 339 337 334 331 332 330 327 327 329 326 322 322 318 311 306 301 290 280 281 285 289 300 307 300 291 287 282 276 272 271 274 281 290 295 292 292 296 294 291 308 330 338 336 337 340 342 343 344 347 350 353 353 348 339 334 333 331 331 333 334 334 333 332 331 331
336 338 335 334 334 334 334 337 341 342 343 344 344 344 344 346 347 349 349 347 345 343 340 338 337 335 332 331 331 327 325 323 318 312 307 299 285 277 281 285 285 291 298 296 290 285 282 279 273 269 271 278 283 285 286 290 289 283 293 318 333 334 332 334 337 337 338 342 346 348 351 353 349 339 331 328 328 330 335 336 335 335 336 336 333
339 341 341 342 342 341 340 339 338 337 336 336 336 336 337 338 340 342 344 346 347 346 344 342 340 338 336 334 332 331 329 327 321 315 307 296 283 278 281 283 284 288 291 291 287 284 283 280 275 271 272 278 282 288 292 287 276 280 307 326 333 330 326 329 334 335 336 340 342 343 347 352 350 338 328 326 326 327 332 334 333 333 337 338 334
343 345 347 346 343 341 339 335 332 329 328 327 328 329 329 329 332 334 334 335 337 339 339 338 337 335 333 330 328 326 325 325 323 319 309 296 289 286 284 284 285 285 285 286 287 287 284 280 276 274 276 277 283 293 294 283 278 294 316 324 323 320 320 325 331 333 335 337 337 337 342 349 347 335 327 326 325 325 329 333 332 332 337 339 336
Height
1561 1560 1559 1558 1556 1554 1553 1551 1550 1549 1548 1547 1546 1545 1544 1542 1542 1541 1540 1539 1537 1536 1536 1534 1533 1532 1531 1530 1529 1527 1525 1524 1523 1522 1521 1520 1519 1518 1517 1516 1515 1514 1513 1512 1511 1510 1509 1508 1507 1506 1505 1504 1503 1502 1501 1500 1499 1498 1498 1497 1496 1495 1495 1494 1492 1492 1491 1491 1490 1489 1488 1488 1487 1487 1487 1487 1487 1487 1487 1488 1490 1491 1492 1493 1494
1561 1560 1558 1557 1555 1553 1552 1551 1550 1550 1548 1547 1545 1545 1544 1543 1542 1541 1540 1538 1537 1536 1535 1533 1532 1531 1530 1529 1528 1527 1525 1524 1523 1522 1521 1520 1518 1518 1517 1515 1514 1514 1512 1511 1510 1509 1508 1507 1506 1505 1504 1504 1502 1502 1501 1500 1499 1498 1497 1496 1495 1495 1494 1493 1492 1492 1491 1490 1489 1488 1487 1486 1486 1486 1486 1486 1486 1487 1486 1487 1488 1489 1489 1490 1492
1560 1558 1557 1556 1555 1554 1553 1551 1550 1549 1548 1546 1545 1544 1544 1543 1541 1540 1539 1538 1536 1535 1534 1533 1532 1531 1530 1529 1527 1526 1525 1523 1523 1522 1521 1520 1518 1517 1516 1515 1514 1513 1513 1511 1510 1509 1508 1507 1506 1504 1503 1503 1502 1501 1500 1499 1498 1497 1496 1495 1494 1494 1493 1492 1492 1491 1490 1489 1489 1488 1487 1486 1485 1485 1484 1485 1485 1486 1485 1485 1485 1485 1486 1488 1490
1559 1557 1556 1555 1554 1554 1553 1551 1550 1549 1547 1546 1545 1544 1543 1542 1542 1540 1539 1538 1536 1535 1534 1533 1532 1531 1530 1529 1528 1526 1524 1523 1522 1521 1520 1520 1519 1517 1516 1515 1514 1513 1512 1511 1509 1508 1507 1506 1505 1504 1503 1502 1501 1500 1499 1498 1497 1496 1495 1494 1493 1493 1492 1492 1492 1491 1490 1489 1488 1488 1486 1485 1484 1483 1483 1483 1483 1484 1484 1483 1483 1482 1484 1486 1487
1558 1557 1556 1555 1554 1553 1552 1550 1549 1548 1547 1546 1545 1544 1543 1542 1542 1541 1539 1538 1537 1536 1535 1534 1533 1531 1530 1529 1528 1526 1524 1523 1522 1520 1520 1520 1519 1517 1515 1514 1513 1512 1511 1510 1508 1507 1506 1505 1504 1503 1502 1501 1500 1499 1498 1497 1496 1495 1494 1494 1493 1492 1491 1491 1491 1490 1489 1488 1487 1487 1486 1485 1483 1483 1482 1481 1481 1481 1481 1481 1481 1481 1482 1483 1485
1558 1557 1556 1555 1554 1553 1551 1550 1549 1548 1547 1546 1545 1544 1543 1542 1542 1541 1540 1538 1537 1536 1535 1534 1533 1531 1530 1530 1528 1526 1524 1522 1521 1520 1520 1519 1519 1517 1514 1513 1512 1511 1510 1509 1507 1506 1505 1504 1504 1503 1501 1500 1499 1498 1497 1496 1495 1494 1493 1493 1492 1492 1491 1491 1490 1489 1489 1488 1487 1486 1485 1484 1483 1482 1482 1481 1480 1479 1479 1480 1480 1480 1481 1482 1483
1557 1556 1556 1555 1554 1553 1552 1551 1550 1549 1547 1546 1545 1544 1544 1543 1541 1540 1539 1538 1537 1536 1535 1533 1532 1531 1530 1529 1528 1525 1523 1522 1521 1520 1519 1518 1517 1516 1514 1512 1511 1510 1509 1508 1507 1506 1505 1504 1503 1502 1501 1499 1498 1497 1496 1495 1495 1494 1493 1492 1492 1491 1490 1490 1489 1489 1488 1488 1487 1486 1485 1484 1483 1482 1481 1480 1479 1478 1478 1477 1478 1478 1479 1479 1480
1557 1556 1555 1554 1554 1553 1552 1551 1550 1549 1547 1546 1545 1544 1543 1542 1541 1539 1538 1537 1536 1535 1533 1532 1532 1531 1530 1529 1527 1524 1522 1521 1520 1519 1517 1516 1515 1514 1512 1511 1510 1509 1509 1508 1506 1505 1503 1502 1502 1501 1500 1499 1497 1496 1495 1494 1493 1493 1492 1492 1491 1491 1490 1489 1488 1488 1487 1487 1486 1485 1484 1483 1482 1481 1480 1480 1479 1478 1477 1476 1476 1476 1476 1477 1477
1557 1556 1555 1555 1554 1553 1552 1551 1550 1549 1547 1546 1545 1544 1542 1541 1540 1539 1537 1536 1535 1533 1532 1531 1531 1530 1529 1528 1527 1524 1522 1521 1519 1517 1516 1514 1513 1512 1511 1510 1509 1508 1508 1507 1505 1503 1502 1502 1501 1500 1499 1498 1496 1495 1494 1493 1493 1493 1492 1491 1491 1490 1489 1488 1488 1487 1487 1486 1485 1484 1483 1483 1482 1481 1480 1479 1479 1477 1476 1476 1475 1475 1474 1474 1475
1557 1556 1556 1555 1555 1554 1553 1552 1551 1549 1548 1547 1545 1544 1543 1541 1540 1538 1537 1536 1535 1533 1532 1531 1530 1530 1529 1528 1528 1526 1523 1521 1519 1517 1515 1513 1512 1511 1510 1509 1508 1508 1507 1505 1504 1503 1502 1501 1500 1499 1498 1496 1495 1494 1493 1493 1492 1491 1491 1490 1489 1489 1488 1488 1487 1487 1486 1485 1484 1484 1483 1482 1482 1481 1479 1478 1478 1477 1476 1475 1475 1474 1473 1473 1473
1557 1557 1556 1555 1555 1554 1553 1552 1551 1550 1549 1548 1546 1545 1543 1542 1540 1539 1538 1536 1535 1534 1532 1531 1531 1531 1530 1529 1529 1527 1524 1521 1519 1516 1514 1512 1511 1510 1510 1509 1508 1507 1506 1504 1503 1502 1501 1500 1500 1499 1497 1496 1495 1493 1492 1492 1491 1490 1489 1488 1488 1487 1487 1486 1486 1485 1485 1484 1484 1483 1482 1481 1480 1480 1479 1478 1477 1476 1475 1475 1474 1474 1473 1472 1472
1557 1557 1556 1556 1555 1554 1553 1553 1552 1551 1550 1549 1547 1546 1544 1543 1542 1540 1539 1538 1536 1535 1534 1533 1532 1532 1531 1531 1530 1527 1524 1521 1519 1516 1514 1512 1510 1510 1510 1509 1508 1507 1506 1504 1503 1502 1501 1500 1499 1498 1497 1495 1494 1493 1491 1490 1489 1489 1488 1487 1487 1486 1485 1485 1484 1484 1484 1483 1482 1482 1481 1480 1479 1479 1478 1477 1476 1475 1474 1474 1473 1473 1472 1471 1470
1558 1557 1556 1556 1555 1553 1553 1553 1552 1551 1550 1549 1548 1547 1545 1544 1543 1542 1540 1539 1538 1537 1536 1535 1534 1533 1533 1532 1530 1528 1525 1522 1519 1516 1514 1511 1510 1509 1510 1509 1508 1507 1506 1504 1503 1502 1500 1500 1499 1498 1497 1495 1493 1492 1490 1489 1488 1488 1487 1486 1485 1485 1484 1483 1483 1483 1482 1481 1481 1480 1479 1479 1478 1477 1477 1476 1475 1474 1473 1473 1472 1472 1471 1470 1469
1558 1557 1556 1556 1554 1553 1553 1553 1552 1552 1551 1550 1549 1548 1546 1545 1544 1543 1542 1541 1539 1538 1538 1537 1535 1535 1534 1533 1531 1529 1526 1522 1519 1516 1513 1511 1509 1509 1510 1509 1508 1507 1505 1504 1503 1501 1500 1499 1498 1497 1496 1494 1492 1490 1489 1488 1487 1487 1486 1485 1484 1484 1483 1483 1482 1481 1480 1480 1479 1478 1478 1477 1476 1476 1475 1474 1474 1473 1472 1471 1471 1470 1469 1468 1467
1558 1557 1556 1556 1555 1553 1552 1552 1552 1552 1551 1550 1549 1548 1547 1546 1545 1544 1543 1542 1541 1540 1539 1538 1536 1535 1534 1533 1532 1530 1526 1523 1520 1516 1513 1511 1509 1510 1510 1509 1508 1507 1506 1504 1503 1502 1500 1498 1498 1497 1495 1494 1492 1490 1488 1487 1486 1486 1485 1484 1484 1483 1482 1481 1480 1479 1479 1478 1477 1477 1476 1475 1475 1474 1473 1472 1472 1472 1471 1470 1470 1469 1468 1467 1466
1557 1557 1556 1556 1555 1554 1552 1551 1552 1552 1551 1550 1549 1549 1548 1547 1546 1545 1544 1543 1542 1540 1540 1538 1537 1536 1534 1533 1532 1530 1527 1523 1520 1516 1513 1511 1510 1510 1510 1509 1508 1507 1506 1504 1503 1502 1500 1498 1497 1496 1495 1493 1492 1490 1488 1487 1486 1485 1484 1483 1483 1483 1482 1480 1479 1478 1477 1476 1475 1475 1474 1474 1473 1472 1471 1471 1470 1469 1470 1469 1468 1467 1466 1465 1465
1557 1557 1556 1555 1554 1554 1552 1551 1551 1551 1550 1550 1549 1548 1547 1546 1546 1545 1544 1543 1542 1541 1540 1539 1537 1536 1535 1533 1532 1530 1527 1524 1521 1517 1514 1511 1510 1510 1510 1509 1509 1507 1506 1505 1504 1502 1501 1499 1497 1496 1494 1493 1491 1490 1488 1486 1485 1484 1483 1482 1482 1482 1481 1479 1477 1476 1476 1475 1474 1474 1473 1472 1472 1471 1470 1469 1468 1468 1468 1468 1467 1466 1465 1465 1464
1557 1556 1556 1555 1554 1553 1551 1550 1550 1550 1550 1549 1549 1548 1547 1546 1545 1544 1544 1543 1542 1541 1540 1539 1537 1536 1535 1533 1531 1529 1527 1524 1521 1519 1515 1512 1511 1510 1510 1510 1509 1508 1506 1505 1504 1502 1502 1500 1497 1495 1494 1492 1491 1489 1488 1486 1485 1484 1483 1481 1481 1480 1479 1477 1476 1475 1474 1473 1473 1472 1471 1471 1471 1470 1469 1468 1467 1467 1466 1466 1466 1465 1465 1464 1463
1557 1556 1555 1554 1553 1552 1551 1550 1549 1549 1549 1549 1548 1547 1547 1546 1545 1544 1544 1543 1542 1541 1540 1539 1538 1536 1534 1533 1531 1530 1528 1525 1522 1520 1517 1514 1512 1511 1510 1510 1509 1508 1506 1505 1504 1503 1502 1500 1498 1496 1494 1492 1491 1489 1488 1486 1485 1483 1482 1481 1480 1479 1477 1476 1475 1474 1472 1472 1471 1470 1470 1469 1469 1468 1468 1467 1466 1465 1465 1465 1464 1464 1464 1463 1463
1556 1555 1555 1553 1553 1552 1551 1550 1549 1548 1548 1547 1547 1546 1546 1545 1545 1544 1543 1543 1542 1541 1540 1539 1537 1536 1534 1533 1531 1530 1528 1526 1523 1521 1518 1516 1513 1511 1511 1510 1509 1508 1507 1505 1505 1503 1502 1501 1499 1496 1494 1492 1491 1489 1488 1486 1485 1483 1482 1480 1479 1477 1476 1475 1475 1473 1472 1471 1470 1469 1468 1467 1467 1467 1466 1466 1465 1464 1464 1463 1463 1463 1462 1462 1462
1555 1555 1554 1553 1553 1552 1551 1550 1550 1549 1548 1547 1547 1546 1545 1545 1545 1544 1543 1542 1541 1541 1540 1538 1537 1536 1534 1533 1531 1529 1528 1526 1524 1521 1519 1517 1515 1513 1511 1510 1509 1509 1508 1506 1506 1504 1502 1501 1499 1496 1494 1493 1491 1490 1488 1487 1485 1484 1482 1481 1479 1478 1476 1475 1475 1473 1472 1471 1470 1469 1468 1466 1466 1465 1465 1464 1464 1463 1462 1462 1461 1461 1461 1460 1460
1555 1555 1554 1553 1553 1552 1552 1551 1550 1550 1549 1548 1548 1547 1546 1545 1545 1543 1543 1542 1541 1540 1539 1538 1537 1536 1535 1533 1532 1530 1528 1526 1524 1522 1520 1518 1516 1514 1512 1510 1509 1509 1508 1507 1506 1504 1503 1501 1499 1497 1495 1493 1492 1490 1489 1487 1486 1485 1483 1482 1480 1478 1476 1476 1475 1473 1472 1472 1471 1470 1468 1467 1466 1465 1464 1463 1462 1461 1461 1460 1460 1460 1459 1459 1459
1555 1554 1554 1554 1553 1552 1552 1551 1550 1550 1549 1548 1548 1547 1546 1546 1545 1544 1543 1542 1541 1540 1539 1538 1537 1536 1535 1534 1532 1530 1528 1526 1525 1523 1521 1519 1517 1515 1513 1511 1510 1510 1509 1508 1506 1504 1503 1501 1499 1497 1495 1494 1492 1491 1489 1488 1487 1486 1484 1482 1480 1478 1477 1476 1475 1473 1472 1471 1470 1470 1468 1467 1466 1465 1463 1461 1460 1460 1459 1459 1459 1458 1458 1457 1458
1555 1554 1554 1553 1553 1553 1552 1551 1551 1550 1549 1549 1548 1547 1547 1546 1545 1544 1543 1542 1541 1540 1540 1539 1538 1536 1535 1534 1532 1531 1529 1527 1525 1523 1521 1519 1518 1516 1514 1513 1511 1510 1509 1508 1507 1505 1503 1501 1500 1497 1496 1495 1493 1491 1490 1489 1487 1486 1484 1482 1481 1480 1478 1477 1475 1473 1472 1472 1471 1470 1469 1467 1465 1464 1462 1460 1459 1459 1458 1458 1457 1457 1456 1456 1456
1555 1554 1554 1553 1553 1553 1552 1551 1551 1550 1549 1549 1548 1548 1547 1546 1545 1544 1543 1542 1542 1541 1540 1539 1538 1537 1535 1534 1533 1531 1530 1528 1526 1524 1521 1519 1518 1516 1515 1513 1512 1510 1510 1509 1507 1505 1503 1501 1500 1498 1496 1495 1494 1493 1492 1490 1488 1486 1484 1483 1482 1481 1479 1477 1476 1474 1473 1472 1471 1470 1469 1467 1466 1464 1462 1460 1459 1458 1457 1456 1456 1455 1455 1454 1455
1555 1554 1554 1553 1553 1553 1552 1552 1551 1550 1550 1549 1548 1548 1547 1546 1545 1544 1543 1543 1542 1541 1540 1539 1538 1537 1536 1534 1533 1532 1530 1529 1527 1525 1523 1521 1519 1517 1515 1514 1512 1511 1510 1509 1507 1505 1503 1502 1500 1499 1498 1497 1495 1494 1494 1492 1490 1488 1486 1484 1483 1482 1480 1478 1476 1475 1473 1472 1471 1470 1469 1467 1466 1464 1463 1461 1459 1458 1457 1456 1455 1454 1454 1453 1453
1554 1554 1554 1553 1553 1553 1552 1552 1551 1550 1550 1549 1549 1548 1547 1546 1546 1545 1544 1543 1542 1541 1540 1539 1538 1537 1536 1534 1533 1532 1530 1529 1527 1524 1523 1521 1520 1518 1517 1515 1513 1512 1511 1509 1507 1506 1504 1503 1502 1500 1499 1498 1496 1495 1494 1492 1491 1489 1487 1486 1484 1483 1481 1479 1477 1475 1474 1472 1471 1470 1469 1467 1466 1465 1464 1463 1461 1459 1457 1456 1455 1454 1454 1453 1453
1554 1554 1554 1554 1553 1553 1552 1552 1551 1550 1550 1549 1549 1548 1547 1546 1545 1544 1543 1542 1541 1541 1540 1539 1538 1537 1536 1535 1533 1532 1531 1529 1526 1524 1522 1520 1518 1517 1516 1515 1514 1512 1511 1509 1507 1505 1505 1503 1502 1501 1500 1498 1497 1496 1495 1493 1491 1490 1488 1486 1485 1484 1482 1480 1478 1476 1474 1472 1471 1470 1469 1467 1466 1465 1464 1463 1462 1461 1459 1457 1455 1454 1454 1453 1453
1554 1555 1554 1554 1553 1553 1552 1552 1551 1550 1550 1549 1548 1547 1546 1546 1545 1544 1543 1542 1541 1540 1539 1538 1538 1536 1535 1534 1533 1531 1530 1528 1526 1523 1522 1519 1518 1516 1515 1514 1512 1511 1510 1508 1506 1505 1505 1504 1503 1501 1500 1499 1498 1496 1495 1493 1492 1490 1488 1486 1485 1484 1482 1480 1478 1476 1474 1472 1471 1470 1469 1468 1467 1465 1464 1463 1462 1461 1460 1458 1457 1455 1454 1454 1453
1555 1555 1554 1553 1553 1552 1552 1551 1550 1550 1549 1548 1548 1547 1546 1545 1544 1543 1542 1541 1540 1539 1538 1537 1536 1535 1534 1533 1531 1529 1528 1527 1525 1523 1521 1519 1518 1516 1514 1512 1510 1509 1508 1507 1505 1505 1505 1504 1503 1502 1500 1499 1498 1496 1495 1493 1492 1490 1488 1487 1486 1484 1482 1481 1479 1476 1475 1474 1472 1470 1469 1468 1467 1465 1464 1463 1462 1461 1460 1460 1458 1457 1456 1455 1454
1555 1555 1554 1553 1552 1552 1551 1551 1550 1549 1548 1547 1547 1546 1545 1544 1543 1542 1541 1540 1539 1538 1537 1536 1535 1534 1532 1531 1529 1528 1526 1525 1524 1522 1521 1519 1517 1515 1513 1511 1509 1508 1507 1506 1506 1506 1505 1504 1503 1502 1501 1500 1498 1497 1495 1494 1492 1491 1489 1487 1486 1485 1483 1481 1478 1476 1475 1474 1472 1471 1469 1468 1467 1465 1464 1463 1463 1462 1461 1460 1459 1458 1457 1456 1455
1554 1554 1554 1553 1552 1551 1551 1550 1549 1548 1548 1547 1546 1545 1544 1543 1542 1541 1540 1540 1538 1537 1536 1535 1534 1532 1531 1530 1528 1526 1525 1524 1523 1521 1520 1518 1517 1514 1512 1511 1509 1508 1507 1506 1506 1506 1506 1505 1504 1502 1501 1500 1498 1497 1496 1494 1493 1491 1489 1488 1487 1485 1483 1481 1478 1477 1476 1474 1473 1472 1470 1468 1467 1466 1464 1463 1462 1462 1461 1460 1459 1459 1458 1457 1456
1554 1554 1553 1552 1551 1550 1550 1549 1548 1548 1547 1546 1545 1544 1543 1543 1542 1540 1539 1538 1537 1536 1535 1533 1532 1531 1529 1528 1527 1525 1524 1522 1521 1520 1519 1518 1516 1514 1512 1511 1509 1508 1508 1507 1507 1506 1506 1505 1504 1502 1501 1500 1499 1497 1496 1494 1493 1491 1490 1489 1487 1485 1483 1481 1479 1477 1476 1474 1473 1472 1470 1468 1467 1466 1464 1464 1463 1462 1461 1461 1460 1459 1458 1457 1456
1554 1553 1552 1551 1551 1550 1549 1548 1548 1547 1546 1545 1544 1543 1542 1542 1540 1539 1538 1537 1536 1535 1533 1531 1530 1529 1527 1526 1525 1524 1522 1521 1520 1519 1518 1517 1515 1514 1512 1510 1509 1508 1508 1508 1507 1506 1505 1505 1504 1502 1501 1500 1499 1497 1496 1495 1493 1492 1490 1489 1487 1485 1484 1482 1480 1478 1476 1474 1473 1472 1470 1468 1467 1465 1464 1464 1463 1463 1462 1461 1460 1459 1458 1457 1456
1553 1552 1551 1550 1550 1549 1549 1548 1547 1546 1545 1544 1543 1542 1542 1541 1539 1539 1538 1537 1535 1534 1532 1530 1528 1526 1525 1525 1523 1522 1520 1519 1518 1517 1517 1516 1515 1513 1512 1511 1510 1509 1509 1508 1507 1506 1505 1505 1503 1502 1501 1500 1499 1498 1496 1495 1493 1492 1491 1489 1488 1486 1484 1482 1480 1478 1475 1474 1473 1472 1470 1468 1467 1466 1465 1464 1464 1463 1462 1461 1460 1459 1458 1457 1456
1552 1551 1551 1550 1549 1548 1547 1546 1545 1544 1543 1542 1542 1541 1540 1539 1539 1538 1537 1536 1534 1533 1531 1530 1527 1525 1523 1523 1522 1520 1519 1518 1517 1516 1515 1515 1514 1513 1512 1511 1511 1510 1509 1508 1507 1506 1505 1504 1503 1502 1501 1500 1499 1498 1496 1495 1494 1493 1491 1489 1488 1487 1485 1482 1480 1478 1476 1475 1473 1471 1470 1468 1467 1465 1465 1464 1464 1463 1462 1461 1460 1459 1458 1457 1456
1551 1550 1550 1549 1548 1547 1546 1545 1544 1543 1542 1541 1540 1540 1539 1538 1537 1536 1535 1535 1533 1531 1530 1528 1526 1523 1521 1520 1519 1518 1517 1516 1515 1514 1513 1513 1513 1512 1512 1511 1510 1510 1509 1508 1507 1506 1505 1504 1503 1502 1501 1500 1499 1497 1496 1495 1494 1493 1491 1489 1489 1487 1484 1482 1480 1478 1476 1475 1473 1471 1470 1468 1466 1465 1464 1464 1464 1463 1462 1461 1460 1459 1458 1457 1456
1550 1549 1548 1547 1546 1545 1544 1543 1542 1541 1540 1540 1539 1538 1537 1537 1536 1535 1534 1533 1531 1529 1528 1526 1525 1523 1521 1519 1519 1518 1516 1514 1513 1512 1512 1512 1511 1511 1511 1510 1510 1509 1509 1507 1506 1505 1504 1504 1502 1501 1500 1499 1498 1497 1496 1495 1494 1493 1491 1489 1488 1486 1484 1483 1481 1479 1477 1475 1473 1471 1469 1468 1466 1465 1464 1464 1463 1462 1461 1460 1459 1459 1458 1457 1456
1549 1548 1547 1545 1544 1543 1542 1541 1540 1539 1539 1538 1537 1537 1536 1535 1534 1533 1532 1531 1529 1527 1526 1524 1523 1522 1521 1520 1519 1517 1515 1513 1512 1511 1511 1511 1510 1510 1510 1510 1509 1509 1508 1507 1506 1505 1504 1503 1502 1501 1500 1499 1498 1497 1496 1494 1493 1492 1490 1489 1488 1486 1484 1483 1482 1479 1477 1475 1473 1471 1469 1468 1466 1465 1464 1464 1463 1461 1460 1459 1459 1458 1458 1457 1456
1548 1547 1546 1544 1542 1541 1540 1539 1538 1538 1537 1536 1536 1535 1534 1533 1532 1531 1530 1529 1527 1525 1523 1522 1521 1520 1518 1517 1517 1516 1514 1512 1511 1510 1510 1510 1510 1510 1509 1509 1508 1508 1507 1506 1505 1504 1503 1502 1501 1500 1500 1499 1498 1497 1496 1494 1493 1492 1490 1489 1488 1486 1484 1483 1481 1479 1477 1475 1473 1471 1469 1467 1465 1464 1464 1463 1461 1460 1459 1459 1458 1458 1457 1457 1456
1547 1546 1545 1543 1541 1540 1539 1538 1537 1536 1535 1535 1534 1533 1532 1531 1530 1529 1528 1526 1524 1523 1521 1520 1519 1517 1516 1515 1514 1514 1513 1511 1509 1509 1509 1509 1509 1508 1508 1508 1507 1506 1506 1505 1504 1503 1502 1502 1501 1500 1499 1498 1497 1496 1495 1494 1493 1491 1490 1489 1487 1485 1484 1483 1481 1479 1477 1475 1473 1471 1469 1467 1465 1464 1463 1461 1460 1459 1459 1458 1457 1457 1457 1456 1455
1546 1545 1544 1542 1541 1539 1538 1537 1536 1535 1534 1533 1532 1532 1531 1530 1529 1528 1526 1524 1522 1521 1519 1518 1517 1516 1514 1513 1513 1512 1511 1509 1508 1508 1508 1508 1508 1507 1507 1507 1506 1505 1505 1504 1503 1502 1501 1501 1500 1499 1498 1498 1497 1495 1495 1494 1492 1491 1489 1488 1486 1485 1484 1482 1480 1479 1477 1475 1473 1471 1469 1467 1466 1464 1463 1462 1460 1459 1458 1458 1457 1457 1456 1456 1455
1545 1544 1543 1541 1540 1539 1537 1536 1535 1534 1533 1532 1531 1531 1529 1528 1527 1526 1524 1522 1520 1518 1517 1516 1516 1515 1513 1511 1511 1511 1509 1507 1507 1507 1507 1507 1507 1506 1506 1506 1505 1504 1504 1503 1502 1501 1500 1500 1499 1499 1498 1497 1496 1494 1493 1493 1491 1490 1488 1487 1485 1484 1483 1481 1480 1478 1476 1474 1473 1471 1469 1468 1466 1465 1464 1463 1461 1460 1459 1458 1458 1457 1456 1455 1455
1544 1543 1542 1541 1539 1538 1537 1535 1534 1533 1533 1531 1530 1529 1528 1526 1525 1524 1522 1520 1518 1517 1516 1515 1514 1513 1511 1510 1509 1508 1507 1506 1506 1506 1506 1505 1505 1505 1505 1505 1504 1503 1503 1502 1501 1500 1500 1499 1498 1498 1497 1496 1495 1494 1492 1491 1490 1488 1486 1485 1484 1483 1482 1481 1479 1478 1476 1474 1473 1472 1470 1468 1466 1465 1464 1463 1461 1461 1460 1459 1458 1457 1456 1455 1454
1543 1542 1541 1540 1539 1537 1536 1535 1534 1533 1532 1530 1529 1528 1526 1525 1523 1522 1520 1519 1517 1515 1514 1513 1513 1512 1510 1509 1508 1507 1506 1505 1505 1504 1504 1504 1504 1503 1504 1503 1503 1502 1502 1501 1500 1499 1498 1498 1497 1497 1496 1495 1494 1493 1492 1490 1489 1487 1485 1484 1483 1482 1481 1480 1479 1477 1476 1474 1473 1472 1470 1468 1466 1465 1464 1463 1462 1461 1460 1459 1459 1457 1456 1455 1454
1542 1540 1540 1539 1538 1537 1535 1534 1533 1532 1531 1529 1528 1527 1525 1524 1522 1520 1519 1517 1515 1514 1513 1512 1511 1510 1509 1508 1507 1506 1505 1504 1504 1503 1503 1502 1502 1502 1502 1502 1501 1501 1500 1500 1499 1498 1497 1496 1496 1495 1495 1494 1493 1492 1490 1489 1489 1487 1485 1483 1482 1481 1480 1479 1478 1476 1475 1474 1472 1471 1469 1467 1466 1465 1464 1462 1462 1461 1460 1459 1459 1458 1456 1455 1453
1540 1540 1539 1538 1537 1536 1535 1533 1532 1531 1530 1529 1528 1526 1525 1523 1522 1520 1518 1516 1515 1513 1512 1511 1510 1508 1508 1507 1506 1505 1504 1503 1502 1502 1501 1501 1500 1500 1500 1500 1500 1500 1499 1499 1498 1497 1496 1495 1494 1494 1493 1492 1491 1490 1489 1488 1488 1487 1485 1482 1481 1480 1479 1478 1477 1476 1475 1473 1472 1470 1468 1467 1465 1465 1463 1462 1462 1461 1460 1459 1459 1457 1456 1455 1453
1540 1539 1538 1537 1536 1535 1534 1533 1532 1531 1530 1529 1528 1526 1525 1523 1521 1520 1518 1516 1515 1513 1512 1510 1509 1508 1507 1506 1505 1504 1503 1502 1501 1500 1500 1499 1499 1499 1498 1498 1498 1498 1498 1497 1496 1496 1495 1494 1493 1492 1492 1491 1490 1489 1488 1487 1486 1485 1483 1481 1480 1479 1478 1477 1476 1475 1474 1473 1471 1470 1468 1466 1465 1464 1463 1462 1462 1461 1460 1459 1458 1457 1455 1454 1453
1539 1539 1538 1537 1536 1535 1534 1533 1532 1531 1530 1528 1527 1526 1524 1523 1521 1519 1518 1516 1515 1513 1512 1510 1509 1508 1506 1505 1504 1503 1502 1501 1500 1499 1498 1498 1497 1497 1497 1497 1497 1496 1496 1496 1495 1494 1493 1492 1491 1491 1490 1489 1489 1488 1487 1486 1485 1483 1482 1480 1479 1478 1477 1476 1475 1474 1473 1472 1470 1469 1467 1466 1465 1464 1463 1462 1462 1461 1460 1459 1458 1456 1455 1454 1453
1539 1538 1537 1536 1535 1534 1534 1533 1532 1530 1529 1527 1526 1524 1523 1522 1520 1519 1517 1516 1514 1513 1511 1510 1509 1507 1506 1505 1503 1502 1501 1500 1499 1498 1497 1496 1496 1495 1495 1495 1495 1495 1494 1494 1493 1492 1492 1491 1490 1489 1488 1488 1487 1486 1485 1484 1483 1481 1480 1478 1477 1477 1476 1475 1474 1473 1472 1471 1470 1468 1467 1465 1464 1463 1463 1462 1462 1461 1460 1459 1458 1456 1455 1455 1453
1538 1537 1537 1536 1535 1534 1533 1532 1530 1529 1528 1526 1525 1523 1522 1520 1519 1518 1517 1515 1514 1512 1511 1509 1508 1507 1505 1504 1503 1501 1500 1498 1497 1496 1495 1495 1494 1494 1494 1494 1493 1493 1493 1492 1492 1491 1490 1489 1488 1488 1487 1487 1486 1486 1485 1483 1481 1479 1478 1477 1476 1476 1475 1474 1473 1472 1471 1470 1469 1468 1466 1465 1464 1463 1462 1462 1461 1460 1460 1459 1458 1456 1455 1455 1454